Moron de la Frontera, Spain

5:28 PM CEST on September 24, 2017 (GMT +0200)
Moron Air Base

Weather History for LEMO - February, 2013

Change the Weather History Date:

Wednesday, February 13, 2013

  Actual Average Record
Temperature  
Mean Temperature 50 °F -  
Max Temperature 62 °F 65 °F 71 °F (2005)
Min Temperature 39 °F 43 °F 26 °F (2012)
Degree Days  
Heating Degree Days 14    
Moisture  
Dew Point 43 °F    
Average Humidity 78    
Maximum Humidity 87    
Minimum Humidity 59    
Precipitation  
Precipitation 0.00 in - - ()
Sea Level Pressure  
Sea Level Pressure 30.23 in    
Wind  
Wind Speed 3 mph ()    
Max Wind Speed 6 mph    
Max Gust Speed -    
Visibility 6.2 miles    
Events      
Averages and records for this station are not official NWS values.
T = Trace of Precipitation, MM = Missing Value Source: Averaged Metar Reports

Daily Weather History Graph

Daily Weather History Graph

Search for Another Location

Airport or City:

Trip Planner

Search our weather history database for the weather conditions in past years. The results will help you decide how hot, cold, wet, or windy it might be!

Date:

Astronomy

Feb. 13, 2013 Rise Set
Actual Time 8:13 AM CET 7:00 PM CET
Civil Twilight 7:46 AM CET 7:27 PM CET
Nautical Twilight 7:16 AM CET 7:57 PM CET
Astronomical Twilight 6:46 AM CET 8:27 PM CET
Moon 9:41 AM CET (2/13) 10:42 PM CET (2/13)
Length of Visible Light 11h 40m
Length of Day
10h 46m
Waxing Crescent, 12% of the Moon is Illuminated
Feb 13
Waxing Crescent
Feb 17
First Quarter
Feb 25
Full
Mar 4
Last Quarter
Mar 11
New

Hourly Weather History & Observations

Time (CET) Temp. Windchill Dew Point Humidity Pressure Visibility Wind Dir Wind Speed Gust Speed Precip Events Conditions
12:00 AM 41.0 °F 39.0 °F 35.6 °F 81% 30.21 in - South 3.5 mph - N/A   Clear
1:00 AM 39.2 °F 37.0 °F 33.8 °F 81% 30.21 in - South 3.5 mph - N/A   Clear
2:00 AM 39.2 °F 35.9 °F 35.6 °F 87% 30.21 in - South 4.6 mph - N/A   Clear
3:00 AM 39.2 °F 37.0 °F 35.6 °F 87% 30.21 in - South 3.5 mph - N/A   Clear
4:00 AM 41.0 °F 37.1 °F 35.6 °F 81% 30.21 in - South 5.8 mph - N/A   Clear
5:00 AM 39.2 °F 35.9 °F 35.6 °F 87% 30.21 in 6.2 mi South 4.6 mph - N/A   Partly Cloudy
6:00 AM 41.0 °F 39.0 °F 37.4 °F 87% 30.21 in 6.2 mi SSE 3.5 mph - N/A   Scattered Clouds
7:00 AM 42.8 °F 40.1 °F 37.4 °F 81% 30.21 in 6.2 mi South 4.6 mph - N/A   Mostly Cloudy
8:00 AM 44.6 °F 43.1 °F 41.0 °F 87% 30.21 in 6.2 mi South 3.5 mph - N/A   Mostly Cloudy
9:00 AM 46.4 °F - 41.0 °F 81% 30.24 in 6.2 mi Variable 2.3 mph - N/A   Mostly Cloudy
10:00 AM 48.2 °F - 42.8 °F 82% 30.24 in 6.2 mi Variable 2.3 mph - N/A   Mostly Cloudy
11:00 AM 51.8 °F - 44.6 °F 76% 30.27 in 6.2 mi SSW 3.5 mph - N/A   Mostly Cloudy
12:00 PM 53.6 °F - 48.2 °F 82% 30.27 in 6.2 mi Variable 2.3 mph - N/A   Mostly Cloudy
1:00 PM 57.2 °F - 48.2 °F 72% 30.27 in 6.2 mi Variable 1.2 mph - N/A   Mostly Cloudy
2:00 PM 59.0 °F - 48.2 °F 67% 30.24 in 6.2 mi Variable 1.2 mph - N/A   Mostly Cloudy
3:00 PM 62.6 °F - 50.0 °F 63% 30.24 in 6.2 mi Calm Calm - N/A   Scattered Clouds
4:00 PM 62.6 °F - 48.2 °F 59% 30.21 in 6.2 mi North 4.6 mph - N/A   Partly Cloudy
5:00 PM 62.6 °F - 50.0 °F 63% 30.21 in - NNE 5.8 mph - N/A   Clear
6:00 PM 62.6 °F - 50.0 °F 63% 30.21 in - NNE 3.5 mph - N/A   Clear
7:00 PM 59.0 °F - 50.0 °F 72% 30.21 in - East 3.5 mph - N/A   Clear
8:00 PM 55.4 °F - 48.2 °F 77% 30.24 in - Variable 2.3 mph - N/A   Clear
9:00 PM 50.0 °F - 44.6 °F 82% 30.24 in - Variable 1.2 mph - N/A   Clear
10:00 PM 48.2 °F - 44.6 °F 87% 30.24 in - SSE 3.5 mph - N/A   Clear
11:00 PM 46.4 °F - 42.8 °F 87% 30.24 in - Variable 2.3 mph - N/A   Clear